User: anonymous   Login
Location: Unspecified
(42.3650°N, 71.1030°W)
Time: 22:04:41
(UTC+00:00)
Language:

NOAA 16 DEB - Orbit

View from above orbital plane
View from above orbital plane
View from above satellite
View from above satellite

Ground track
Ground track

The orbit data is extracted from the following two-line orbital elements,

1 41658U 00055NX  24259.33537224  .00040593  00000-0  11742-1 0  9992
2 41658  98.8894  33.6116 0024642 184.9354 175.1596 14.44134813436453
Epoch (UTC): 15 September 2024 08:02:56
Eccentricity: 0.0024642
inclination: 98.8894°
perigee height: 727 km
apogee height: 762 km
right ascension of ascending node: 33.6116°
argument of perigee: 184.9354°
revolutions per day: 14.44134813
mean anomaly at epoch: 175.1596°
orbit number at epoch: 43645

The dashed part of the orbit path shows where the satellite is in the earth's shadow,  

DLR